Powrót do katalogu

ANIK D2 R/B

PAM-D

AktywnyHEO
NORAD 15387·ROCKET BODY·🇺🇸 United States

Wystrzelony Nov 8, 1984 z Cape Canaveral Space Force Station

Loading…

Następne Przeloty (najbliższe 24 godziny)

TLE

ŚwieżeSource: Space-Track

Epoka: Sep 12, 2026, 21:23 UTC

1 15387U 84113D   26255.89133713  .00000716  00000-0  43236-3 0  9991
2 15387  25.1279 197.3189 7062355 249.2737  26.3556  2.52315671366950

Śledź ANIK D2 R/B w czasie rzeczywistym z AllMySat

Download on the App Store